User: anonymous   Login
Location: Bodest
(46.3000°N, 22.5667°E)
Time: 18:35:19
(UTC+00:00)
Language:

OBJECT B - Orbit

View from above orbital plane
View from above orbital plane
View from above satellite
View from above satellite

Ground track
Ground track

The orbit data is extracted from the following two-line orbital elements,

1 44839U 19087B   22223.16298954  .00006954  00000-0  26850-3 0  9996
2 44839  97.4825  22.4869 0012928  75.8745  39.3706 15.26514895148775
Epoch (UTC): 11 August 2022 03:54:42
Eccentricity: 0.0012928
inclination: 97.4825°
perigee height: 477 km
apogee height: 495 km
right ascension of ascending node: 22.4869°
argument of perigee: 75.8745°
revolutions per day: 15.26514895
mean anomaly at epoch: 39.3706°
orbit number at epoch: 14877

The dashed part of the orbit path shows where the satellite is in the earth's shadow,  

DLR